Wind_Speed
9 10 11 11 12 14 16 18 19 18 18 19 21 21 21 22 22 23 24 23 23 23 23 22 21 20 19 18 16 15 15 16 17 17 17 17 17 18 18 19 19 18 17 16 17 17 15 13 14
8 8 8 10 11 13 15 16 17 17 19 21 21 21 22 22 23 24 24 24 24 24 24 23 21 19 18 17 17 17 17 17 18 19 19 19 19 20 20 21 21 20 19 18 18 18 17 14 14
8 7 8 10 12 14 15 16 18 20 20 19 19 19 20 21 23 24 24 24 25 25 24 21 18 17 18 18 19 19 19 19 20 20 21 22 22 22 22 22 22 22 21 20 20 19 17 15 14
5 6 7 10 13 15 16 17 18 18 18 17 17 16 18 21 22 23 24 24 25 24 22 20 20 21 22 23 23 23 23 23 23 23 23 23 23 23 23 23 23 23 22 21 21 20 19 17 15
8 6 7 9 11 13 14 15 17 18 16 16 16 17 19 21 22 23 24 24 23 22 22 23 24 25 25 25 25 25 25 26 25 25 25 25 24 24 24 24 24 24 24 24 23 22 21 19 16
11 11 11 12 12 13 14 15 17 17 17 17 17 17 19 20 21 22 22 22 23 24 24 25 25 26 26 26 26 27 27 28 28 27 27 27 27 27 27 27 27 27 27 26 24 23 22 20 18
12 12 13 14 14 14 15 16 17 18 18 18 19 19 22 22 23 24 24 25 25 25 26 27 27 28 28 29 29 30 30 29 29 29 28 29 28 28 28 28 28 27 26 25 25 23 22 21 20
15 15 16 16 15 16 17 18 20 21 22 22 23 23 25 26 26 26 27 27 27 27 27 28 29 29 30 30 30 30 30 29 29 29 30 30 29 29 28 28 27 26 25 25 24 24 23 23 23
16 17 20 18 18 19 19 21 22 23 23 24 26 27 27 26 26 27 27 26 27 28 28 28 28 29 29 28 28 28 28 28 28 30 31 31 31 30 29 28 28 28 27 26 26 27 27 27 27
14 16 18 17 18 18 19 21 21 21 21 24 26 25 22 22 23 23 24 25 25 26 26 25 25 26 27 27 27 26 26 26 27 28 29 29 30 31 31 30 30 30 30 30 31 32 32 32 33
13 15 15 16 18 18 19 20 20 19 20 26 24 20 20 20 20 20 21 22 23 24 25 25 26 27 28 28 29 29 30 30 30 31 32 32 33 34 35 35 35 35 36 36 37 37 38 39 39
13 16 16 18 18 16 16 18 20 19 23 24 20 20 22 22 21 22 23 24 25 26 27 28 28 29 29 30 30 31 33 35 36 37 38 39 40 41 41 42 42 43 43 43 43 43 44 44 45
11 14 14 16 17 15 14 15 17 20 23 23 22 23 24 24 24 24 25 25 25 26 26 27 28 29 29 30 31 32 32 33 34 36 37 38 40 42 43 44 44 45 45 46 46 47 48 48 48
13 15 17 17 18 16 15 17 20 23 26 27 27 27 27 27 26 26 26 25 26 26 28 30 32 34 35 36 36 36 36 36 37 37 37 38 39 40 41 43 44 44 44 44 45 46 48 50 50
16 18 21 21 23 22 22 23 27 27 27 29 30 28 27 28 28 28 28 29 29 30 32 34 35 38 40 41 42 42 43 43 43 43 43 44 43 43 44 46 47 47 46 45 46 47 49 51 51
21 21 23 25 26 25 24 23 31 31 27 29 30 29 29 30 30 30 31 32 33 34 37 39 40 42 44 45 46 47 48 48 49 49 50 50 50 50 50 50 51 50 49 49 50 49 50 51 51
24 24 26 28 28 28 27 25 31 31 28 27 28 29 29 31 32 33 35 37 39 41 43 45 47 48 49 50 51 51 52 52 52 53 53 53 53 53 55 55 54 52 51 52 52 51 51 51 51
24 24 25 27 26 25 24 23 27 27 26 26 27 29 31 34 37 41 43 44 45 46 47 49 50 52 53 55 56 57 56 56 56 55 56 55 55 55 56 57 57 55 54 52 51 51 51 51 52
19 19 20 22 22 19 19 22 25 25 28 30 32 36 39 42 44 45 45 46 47 48 49 50 52 54 56 57 58 59 59 59 59 58 58 57 56 56 56 55 55 54 52 50 49 51 53 52 53
18 17 18 19 20 21 24 28 30 31 33 36 40 45 47 46 46 47 48 49 50 51 52 52 53 54 56 57 59 60 62 62 61 60 59 58 57 57 56 54 53 51 50 49 50 52 54 54 54
17 19 20 23 25 27 31 36 38 39 42 46 50 52 53 54 53 51 50 50 51 52 52 53 53 55 56 58 60 62 64 64 64 62 61 60 58 57 56 53 51 49 50 50 50 52 53 52 52
21 24 26 29 32 35 38 43 45 48 50 53 55 55 57 59 59 59 57 56 56 56 56 56 56 56 56 56 58 61 63 63 63 63 62 61 59 56 54 53 52 52 51 51 52 53 53 54 53
26 29 32 35 38 41 43 45 49 52 56 58 58 59 60 61 61 60 60 62 63 64 65 65 66 64 63 61 60 61 63 64 64 63 62 61 58 56 54 54 55 52 51 51 52 53 55 56 55
30 33 35 37 40 42 45 49 54 56 57 58 58 58 59 60 62 64 67 69 72 74 74 75 76 74 72 68 63 63 64 64 63 61 60 58 56 54 53 53 54 52 52 52 52 53 56 58 57
35 37 39 41 44 47 50 53 54 54 55 57 59 62 64 66 70 73 76 79 80 81 81 80 80 77 73 68 63 63 63 63 62 60 57 55 53 52 51 51 51 49 49 49 50 52 53 56 55
40 41 43 45 47 49 51 52 54 58 62 64 67 70 72 75 80 84 85 86 86 85 84 80 75 70 67 64 59 57 57 59 59 55 54 50 48 48 48 50 46 47 48 49 49 50 50 51 56
44 45 48 49 49 48 51 59 64 66 68 69 73 76 79 82 86 88 88 87 85 81 76 72 68 63 61 59 55 52 52 53 51 48 50 48 48 48 47 47 45 47 48 49 51 51 50 49 52
47 48 48 49 51 54 56 63 68 69 70 75 79 81 84 87 87 84 81 78 72 66 61 59 60 58 55 53 53 55 48 53 53 49 45 46 47 46 44 47 47 43 45 48 48 49 49 49 49
47 47 49 53 56 60 63 63 67 70 75 79 80 82 83 81 75 70 66 61 56 52 51 52 54 56 55 52 52 57 54 52 51 52 45 43 44 46 48 45 45 45 43 41 41 43 47 46 44
50 49 50 54 58 62 65 66 70 74 78 79 77 75 71 66 61 57 59 62 62 59 56 53 52 53 53 53 53 56 53 54 59 53 46 42 40 41 44 44 43 41 41 41 40 41 42 40 39
Wind_Direction
244 235 223 218 211 209 212 213 215 221 229 233 235 238 241 246 249 254 259 262 267 272 275 276 276 275 274 272 276 279 278 275 270 268 265 265 267 270 272 274 274 278 281 284 288 294 298 293 283
241 232 215 206 198 199 207 213 220 226 231 233 237 241 246 250 255 258 262 267 272 276 277 276 275 272 270 272 277 279 279 279 277 274 270 267 266 267 268 270 273 277 281 286 289 294 299 295 280
237 228 211 200 195 201 210 218 225 231 236 240 244 248 253 256 259 263 268 272 275 276 276 274 270 270 272 276 278 279 279 278 278 276 273 270 268 267 268 270 274 278 281 284 287 291 294 290 279
237 221 213 205 201 208 215 223 233 241 246 251 253 257 260 264 268 273 276 279 279 278 274 270 273 276 277 278 280 281 282 281 279 277 275 273 270 268 268 270 274 278 280 283 286 286 286 284 277
243 232 216 214 216 221 226 235 244 249 252 256 260 264 266 271 274 277 279 279 277 274 273 275 276 277 278 279 279 279 279 278 277 276 275 274 273 271 270 271 273 276 279 280 279 278 278 277 271
245 244 236 233 233 234 236 241 249 254 257 261 265 269 269 271 274 274 274 273 271 272 274 275 276 276 277 277 277 276 276 276 274 272 272 273 273 273 273 273 273 274 274 272 269 267 267 267 266
246 246 243 243 241 245 248 253 259 262 264 266 268 269 269 268 267 269 272 273 274 275 277 278 278 278 277 277 276 275 272 270 269 269 268 268 268 269 270 270 270 270 269 267 265 262 261 263 263
254 255 254 253 252 255 259 264 267 269 270 271 270 267 267 270 271 270 271 273 277 280 280 279 278 277 276 275 274 273 271 269 267 266 265 265 265 265 266 266 267 267 265 263 261 260 261 264 264
257 259 260 262 263 264 267 269 269 272 275 276 273 272 273 274 272 270 271 272 274 275 274 273 273 275 275 274 271 269 268 267 267 267 267 266 265 263 262 263 263 263 263 262 261 262 261 262 263
265 265 268 272 271 273 275 274 275 273 272 269 268 273 277 274 269 266 265 266 269 270 271 271 272 273 274 274 273 271 269 268 268 268 268 268 267 264 263 262 263 263 263 264 265 266 265 264 264
270 271 274 274 274 275 274 275 272 267 263 262 269 278 278 274 273 272 270 269 269 270 272 274 274 273 273 273 274 274 274 272 269 267 265 264 263 261 261 262 263 263 264 266 267 268 267 266 266
272 275 279 280 279 276 273 270 268 264 257 264 273 268 266 272 275 277 278 277 278 280 282 283 284 284 285 284 282 280 278 276 274 272 270 268 266 264 264 264 265 266 266 268 269 268 267 266 266
290 289 289 287 286 284 277 271 266 263 266 269 269 270 271 271 271 272 274 278 283 287 290 291 291 291 292 292 290 288 286 283 279 276 274 272 270 268 267 267 267 268 269 270 270 271 270 268 266
296 295 294 293 289 285 283 279 274 271 271 273 273 273 274 275 276 277 280 284 287 290 292 292 293 293 292 291 290 289 288 286 285 283 282 280 278 277 275 273 271 271 271 272 273 273 272 271 269
293 293 291 291 290 289 288 291 286 278 275 275 276 278 281 283 283 284 286 288 290 292 292 290 290 290 289 289 288 288 288 288 287 286 285 284 283 282 280 279 277 275 274 272 271 270 269 269 268
296 292 292 293 295 296 294 292 286 282 283 281 281 284 286 287 286 286 287 289 291 291 289 286 286 286 285 284 283 283 284 284 284 284 284 284 284 283 282 279 277 277 277 275 273 271 269 267 265
293 292 292 293 294 295 294 288 283 286 284 281 282 284 286 288 289 289 289 289 289 288 286 284 283 283 283 282 280 280 280 279 279 280 280 279 279 279 279 278 277 277 277 276 274 271 269 267 265
295 292 292 293 293 293 293 289 284 283 282 282 282 284 287 289 288 289 288 288 288 288 286 285 284 283 282 281 281 280 279 277 277 277 277 277 276 276 277 277 277 277 276 274 271 269 267 266 264
298 296 295 293 291 292 292 289 286 284 284 286 289 290 291 291 291 291 291 291 290 288 286 284 283 282 282 282 281 281 280 279 278 277 276 275 275 274 274 274 274 274 274 271 267 265 263 262 261
302 303 301 296 292 292 293 293 292 292 289 288 291 293 295 296 295 295 294 291 289 287 285 283 281 280 279 279 278 279 279 279 279 278 277 277 276 275 274 273 272 272 271 267 261 259 259 259 260
303 300 298 296 294 293 297 296 295 294 293 295 297 298 299 299 299 299 295 293 292 291 290 287 283 281 279 278 277 277 277 276 276 275 275 275 275 275 275 274 271 268 267 263 259 257 257 257 256
304 302 300 298 297 297 298 300 300 299 301 302 304 304 303 302 302 302 302 302 300 299 297 293 290 287 284 282 279 278 277 276 275 274 273 272 272 272 272 271 268 267 265 260 257 256 256 255 251
306 305 303 302 302 302 303 304 305 305 308 308 307 305 304 304 302 302 301 301 301 301 299 296 294 292 290 285 280 277 276 275 275 273 271 270 270 269 268 266 266 266 263 260 258 255 254 253 249
313 310 307 306 305 305 305 305 306 306 306 305 305 305 304 303 303 302 302 302 300 298 296 294 292 290 288 285 280 275 273 271 270 268 267 268 267 266 266 265 263 262 261 260 259 256 254 252 251
313 312 310 310 309 308 306 306 305 306 306 305 306 306 305 305 304 302 301 299 297 296 295 294 292 289 286 281 275 271 270 267 265 264 265 265 264 265 267 265 262 262 263 264 263 257 254 250 247
313 314 314 312 310 309 310 311 311 309 309 310 307 305 305 305 304 301 299 297 296 295 293 291 289 285 280 275 269 266 264 263 264 266 265 263 263 264 263 263 263 267 269 268 264 257 253 252 244
316 317 314 312 310 312 315 315 313 311 313 310 308 307 306 303 300 298 297 297 296 295 293 291 287 280 273 269 265 261 255 256 260 260 262 263 266 267 267 268 271 274 273 268 262 257 254 250 243
317 317 318 318 317 315 315 316 315 316 312 309 307 304 302 301 301 302 301 299 298 297 294 290 285 278 269 260 255 255 256 253 253 254 266 274 273 272 272 272 271 270 270 265 261 258 256 245 239
319 319 318 317 315 315 315 313 312 310 307 307 306 306 305 306 306 305 304 304 302 299 297 293 285 277 267 255 247 251 252 254 263 261 260 266 269 270 269 271 273 275 271 266 261 255 250 240 232
319 319 317 316 315 312 310 312 309 307 307 307 307 307 309 308 307 307 308 308 306 301 297 291 287 281 270 257 246 244 253 260 260 259 268 271 271 272 268 269 277 277 270 269 263 249 243 233 227
Height
5853 5853 5854 5856 5858 5859 5860 5862 5862 5864 5866 5866 5866 5865 5865 5865 5865 5867 5864 5862 5862 5862 5860 5859 5857 5856 5855 5855 5854 5853 5853 5852 5852 5851 5851 5850 5849 5849 5849 5849 5850 5850 5849 5848 5847 5847 5846 5846 5844
5852 5852 5853 5854 5856 5857 5858 5859 5860 5861 5862 5862 5862 5861 5861 5860 5860 5860 5859 5858 5858 5857 5856 5855 5854 5852 5852 5851 5850 5850 5849 5848 5848 5847 5847 5846 5846 5845 5845 5845 5845 5845 5845 5844 5844 5843 5843 5842 5842
5851 5851 5853 5853 5854 5855 5856 5857 5857 5857 5858 5858 5858 5858 5857 5857 5856 5855 5855 5854 5853 5852 5851 5850 5850 5849 5848 5848 5847 5846 5845 5844 5843 5843 5843 5842 5842 5842 5842 5841 5841 5841 5841 5840 5839 5839 5839 5839 5839
5851 5851 5852 5853 5852 5852 5853 5854 5854 5855 5855 5855 5855 5854 5852 5852 5851 5851 5851 5850 5849 5849 5847 5846 5846 5845 5844 5843 5842 5841 5841 5840 5839 5839 5838 5838 5837 5837 5837 5837 5836 5836 5836 5836 5835 5835 5834 5835 5835
5849 5850 5851 5851 5851 5851 5851 5851 5851 5851 5852 5851 5850 5849 5848 5848 5846 5846 5846 5845 5845 5844 5843 5842 5841 5840 5839 5838 5837 5836 5835 5834 5834 5834 5833 5833 5832 5832 5832 5832 5832 5831 5831 5831 5831 5831 5831 5831 5831
5847 5848 5849 5849 5848 5848 5848 5848 5848 5848 5847 5847 5847 5846 5844 5844 5842 5841 5840 5840 5839 5839 5838 5837 5836 5835 5834 5833 5832 5831 5830 5830 5829 5828 5828 5828 5828 5827 5827 5827 5826 5826 5826 5825 5825 5825 5825 5826 5827
5845 5845 5845 5845 5845 5846 5846 5844 5844 5843 5843 5843 5842 5842 5840 5839 5838 5836 5835 5834 5833 5833 5832 5831 5830 5829 5828 5827 5826 5825 5824 5824 5824 5823 5822 5822 5822 5821 5821 5821 5820 5820 5820 5819 5820 5820 5820 5820 5821
5842 5843 5842 5842 5842 5842 5842 5841 5840 5839 5838 5838 5837 5836 5834 5833 5832 5831 5830 5829 5828 5827 5826 5825 5824 5822 5821 5821 5820 5819 5818 5818 5817 5817 5817 5817 5817 5816 5816 5815 5815 5815 5814 5814 5814 5815 5815 5815 5816
5838 5841 5838 5839 5839 5838 5837 5836 5836 5835 5834 5833 5831 5829 5829 5828 5826 5825 5824 5823 5823 5821 5820 5819 5818 5816 5816 5815 5814 5813 5812 5812 5811 5811 5811 5811 5811 5811 5810 5810 5809 5809 5809 5809 5809 5809 5809 5809 5809
5836 5836 5836 5836 5835 5834 5833 5832 5832 5831 5829 5827 5825 5824 5823 5821 5819 5819 5818 5818 5817 5816 5815 5814 5813 5812 5811 5810 5808 5808 5807 5806 5806 5805 5805 5804 5804 5804 5804 5803 5803 5803 5803 5803 5803 5803 5803 5803 5803
5832 5832 5831 5830 5830 5829 5828 5827 5826 5826 5824 5820 5821 5820 5818 5816 5815 5813 5813 5812 5811 5810 5809 5809 5808 5807 5806 5805 5804 5803 5801 5801 5800 5799 5798 5798 5798 5797 5797 5796 5796 5796 5796 5795 5795 5795 5795 5796 5796
5829 5828 5827 5826 5825 5825 5825 5823 5821 5820 5818 5817 5817 5815 5812 5812 5811 5809 5808 5807 5807 5806 5805 5804 5803 5801 5800 5799 5797 5796 5795 5794 5793 5792 5792 5791 5791 5790 5789 5789 5788 5787 5787 5787 5787 5787 5786 5786 5786
5827 5826 5824 5823 5822 5822 5821 5819 5818 5815 5814 5813 5812 5810 5809 5808 5806 5805 5803 5802 5802 5801 5799 5797 5796 5794 5793 5792 5790 5789 5788 5786 5785 5784 5783 5782 5781 5780 5780 5778 5778 5777 5776 5776 5776 5776 5776 5776 5776
5825 5823 5822 5820 5819 5819 5819 5817 5815 5812 5811 5809 5807 5805 5804 5803 5801 5800 5799 5798 5797 5795 5793 5792 5789 5787 5785 5784 5782 5781 5779 5777 5776 5775 5774 5772 5771 5770 5769 5769 5768 5767 5766 5766 5765 5765 5764 5764 5764
5823 5822 5819 5818 5816 5816 5816 5814 5809 5807 5805 5804 5802 5801 5800 5798 5796 5794 5793 5792 5790 5788 5786 5784 5781 5779 5777 5775 5773 5771 5768 5766 5765 5764 5762 5761 5760 5758 5757 5756 5755 5755 5754 5754 5754 5753 5753 5752 5753
5820 5819 5816 5814 5812 5811 5812 5811 5803 5799 5801 5798 5796 5796 5794 5791 5790 5788 5786 5784 5782 5779 5777 5774 5771 5768 5766 5764 5762 5760 5757 5755 5753 5751 5750 5748 5747 5746 5744 5743 5742 5741 5740 5740 5740 5740 5740 5740 5741
5815 5814 5811 5809 5807 5805 5804 5803 5797 5795 5794 5793 5791 5789 5787 5784 5783 5781 5778 5775 5773 5770 5767 5763 5760 5757 5754 5751 5749 5747 5745 5742 5740 5738 5736 5735 5734 5732 5730 5728 5727 5726 5726 5725 5725 5726 5726 5727 5728
5810 5808 5806 5803 5801 5799 5796 5794 5791 5790 5787 5786 5785 5782 5779 5777 5775 5772 5768 5765 5762 5758 5754 5750 5747 5743 5740 5737 5734 5731 5729 5727 5725 5723 5722 5720 5719 5718 5716 5714 5713 5711 5711 5710 5710 5711 5711 5712 5713
5804 5803 5801 5798 5796 5794 5792 5789 5785 5784 5782 5780 5777 5774 5771 5767 5764 5760 5756 5752 5748 5744 5740 5736 5733 5728 5724 5721 5718 5715 5712 5710 5708 5706 5705 5703 5702 5701 5699 5698 5697 5696 5695 5694 5694 5695 5695 5696 5698
5799 5798 5795 5792 5790 5788 5786 5783 5781 5779 5776 5773 5769 5764 5759 5754 5750 5746 5742 5739 5734 5729 5725 5721 5717 5712 5708 5704 5701 5698 5695 5693 5691 5690 5688 5686 5684 5683 5682 5681 5679 5679 5678 5678 5679 5679 5680 5682 5683
5795 5793 5790 5787 5785 5782 5779 5774 5773 5770 5766 5761 5756 5750 5744 5739 5735 5731 5727 5723 5718 5713 5709 5704 5700 5696 5693 5689 5686 5682 5680 5677 5674 5673 5671 5669 5667 5666 5665 5664 5663 5663 5663 5663 5664 5665 5666 5667 5668
5790 5788 5785 5781 5778 5774 5771 5765 5761 5758 5754 5747 5741 5735 5729 5723 5718 5712 5707 5702 5698 5694 5691 5686 5683 5679 5675 5671 5668 5665 5662 5659 5657 5656 5654 5653 5651 5650 5649 5648 5648 5648 5648 5649 5649 5651 5652 5653 5655
5786 5783 5779 5775 5770 5766 5762 5759 5754 5747 5740 5733 5727 5720 5713 5707 5701 5696 5691 5685 5681 5676 5671 5666 5662 5659 5655 5651 5649 5646 5642 5639 5637 5636 5636 5635 5634 5633 5633 5632 5631 5632 5632 5633 5633 5635 5638 5640 5642
5780 5777 5772 5768 5763 5758 5753 5748 5743 5735 5728 5721 5714 5707 5699 5692 5685 5680 5673 5667 5661 5655 5650 5645 5641 5638 5633 5630 5628 5626 5622 5620 5619 5618 5618 5618 5617 5616 5616 5617 5617 5617 5617 5617 5617 5618 5620 5624 5627
5774 5770 5765 5760 5755 5750 5742 5737 5732 5723 5715 5708 5700 5690 5682 5675 5668 5661 5654 5647 5640 5633 5627 5622 5616 5613 5610 5608 5606 5604 5602 5601 5599 5599 5600 5601 5602 5601 5602 5602 5602 5602 5602 5602 5602 5602 5604 5607 5610
5767 5763 5757 5752 5746 5740 5733 5725 5718 5709 5699 5691 5681 5672 5665 5657 5649 5641 5632 5624 5616 5609 5602 5597 5592 5588 5585 5584 5584 5584 5585 5584 5584 5585 5584 5586 5587 5588 5587 5588 5588 5588 5588 5588 5588 5587 5589 5591 5595
5759 5754 5747 5741 5734 5729 5724 5713 5702 5693 5686 5676 5666 5658 5649 5640 5630 5620 5611 5602 5593 5586 5578 5572 5568 5566 5564 5562 5563 5565 5567 5568 5570 5570 5570 5571 5572 5572 5572 5572 5573 5573 5572 5572 5572 5572 5575 5577 5579
5750 5744 5738 5729 5723 5719 5718 5706 5688 5681 5671 5663 5653 5642 5630 5618 5607 5597 5587 5578 5572 5564 5558 5552 5545 5542 5543 5543 5545 5549 5551 5553 5554 5553 5555 5556 5557 5556 5555 5557 5557 5558 5558 5557 5556 5557 5559 5562 5565
5741 5734 5727 5720 5712 5704 5701 5701 5679 5668 5655 5645 5634 5620 5607 5596 5586 5576 5568 5560 5553 5547 5541 5536 5528 5522 5522 5523 5525 5529 5534 5535 5537 5540 5542 5543 5544 5543 5543 5543 5544 5544 5544 5544 5543 5544 5545 5548 5553
5730 5724 5717 5710 5700 5690 5682 5685 5665 5652 5640 5626 5615 5604 5593 5579 5569 5560 5550 5543 5537 5530 5525 5518 5511 5506 5504 5505 5507 5510 5515 5518 5523 5527 5528 5529 5530 5530 5530 5530 5531 5531 5531 5531 5531 5532 5533 5536 5541